When you browse on this site, cookies collect data to enhance your experience and personalize the content and advertising you see.
Visit our Privacy Policy to learn more. By continuing to use the site, you agree to this use of cookies and data.
  • In Latvia
  • List of Countries
  • For 7 days
  • Water Temperature
  • Weather Map
  • Weather Widgets
  • user-avatar
    Login

    Hourly Weather Hobart

    Today, 23 October, Wednesday

    Time Temperature Precipitation Wind Pressure Humidity
    00:00 +11°C° 0 mm 1 mps 751 mmHg 86%
    01:00 +10°C° 0 mm 2 mps 751 mmHg 82%
    02:00 +10°C° 0 mm 2 mps 750 mmHg 77%
    03:00 +9°C° 0 mm 2 mps 750 mmHg 73%
    04:00 +9°C° 0 mm 2 mps 749 mmHg 64%
    05:00 +10°C° 0 mm 2 mps 749 mmHg 59%
    06:00 +12°C° 0 mm 2 mps 749 mmHg 55%
    07:00 +13°C° 0 mm 1 mps 749 mmHg 50%
    08:00 +16°C° 0 mm 2 mps 749 mmHg 42%
    09:00 +18°C° 0 mm 2 mps 749 mmHg 33%
    10:00 +21°C° 0 mm 2 mps 750 mmHg 24%
    11:00 +23°C° 0 mm 2 mps 749 mmHg 25%
    12:00 +22°C° 0 mm 3 mps 749 mmHg 27%
    13:00 +24°C° 0 mm 3 mps 749 mmHg 28%
    14:00 +21°C° 0 mm 3 mps 749 mmHg 35%
    15:00 +20°C° 0 mm 3 mps 749 mmHg 43%
    16:00 +19°C° 0 mm 4 mps 749 mmHg 51%
    17:00 +16°C° 0 mm 3 mps 749 mmHg 64%
    18:00 +14°C° 0 mm 2 mps 749 mmHg 77%
    19:00 +11°C° 0 mm 1 mps 749 mmHg 90%
    20:00 +11°C° 0 mm 1 mps 749 mmHg 91%
    21:00 +10°C° 0 mm 0 mps 750 mmHg 92%
    22:00 +10°C° 0 mm 0 mps 750 mmHg 92%
    23:00 +10°C° 0 mm 0 mps 749 mmHg 93%

    Tomorrow, 24 October, Thursday

    Time Temperature Precipitation Wind Pressure Humidity
    00:00 +10°C° 0 mm 1 mps 749 mmHg 95%
    01:00 +10°C° 0 mm 1 mps 748 mmHg 96%
    02:00 +9°C° 0 mm 1 mps 748 mmHg 96%
    03:00 +9°C° 0 mm 1 mps 748 mmHg 95%
    04:00 +9°C° 0 mm 1 mps 747 mmHg 95%
    05:00 +9°C° 0 mm 2 mps 747 mmHg 89%
    06:00 +10°C° 0 mm 2 mps 747 mmHg 82%
    07:00 +12°C° 0 mm 2 mps 747 mmHg 76%
    08:00 +16°C° 0 mm 2 mps 747 mmHg 60%
    09:00 +19°C° 0 mm 2 mps 746 mmHg 45%
    10:00 +24°C° 0 mm 2 mps 746 mmHg 29%
    11:00 +26°C° 0 mm 2 mps 746 mmHg 27%
    12:00 +27°C° 0 mm 2 mps 745 mmHg 25%
    13:00 +28°C° 0 mm 3 mps 745 mmHg 22%
    14:00 +28°C° 0 mm 3 mps 744 mmHg 25%
    15:00 +28°C° 0 mm 3 mps 744 mmHg 27%
    16:00 +28°C° 0 mm 3 mps 743 mmHg 29%
    17:00 +25°C° 0 mm 3 mps 743 mmHg 36%
    18:00 +23°C° 0 mm 2 mps 742 mmHg 44%
    19:00 +19°C° 0 mm 2 mps 742 mmHg 51%
    20:00 +18°C° 0 mm 3 mps 741 mmHg 52%
    21:00 +18°C° 0 mm 3 mps 741 mmHg 54%
    22:00 +17°C° 0 mm 3 mps 740 mmHg 55%
    23:00 +16°C° 0 mm 3 mps 739 mmHg 53%

    Day after tomorrow, 25 October, Friday

    Time Temperature Precipitation Wind Pressure Humidity
    00:00 +16°C° 0 mm 3 mps 738 mmHg 52%
    01:00 +14°C° 0 mm 3 mps 737 mmHg 50%
    02:00 +16°C° 0 mm 3 mps 736 mmHg 47%
    03:00 +16°C° 0 mm 3 mps 735 mmHg 44%
    04:00 +16°C° 0 mm 3 mps 734 mmHg 41%
    05:00 +17°C° 0 mm 4 mps 733 mmHg 42%
    06:00 +19°C° 0 mm 4 mps 732 mmHg 43%
    07:00 +20°C° 0 mm 5 mps 731 mmHg 44%
    08:00 +21°C° 0 mm 6 mps 732 mmHg 43%
    09:00 +22°C° 0 mm 7 mps 732 mmHg 43%
    10:00 +23°C° 0 mm 8 mps 733 mmHg 42%
    11:00 +21°C° 0 mm 8 mps 733 mmHg 41%
    12:00 +20°C° 0 mm 8 mps 733 mmHg 40%
    13:00 +17°C° 0 mm 7 mps 733 mmHg 39%
    14:00 +17°C° 0 mm 7 mps 733 mmHg 37%
    15:00 +17°C° 0 mm 6 mps 733 mmHg 36%
    16:00 +17°C° 0 mm 6 mps 733 mmHg 35%
    17:00 +15°C° 0 mm 5 mps 734 mmHg 41%
    18:00 +13°C° 0 mm 4 mps 734 mmHg 47%
    19:00 +11°C° 0 mm 3 mps 734 mmHg 53%
    20:00 +11°C° 0 mm 3 mps 734 mmHg 58%
    21:00 +10°C° 0 mm 4 mps 733 mmHg 64%
    22:00 +8°C° 0 mm 4 mps 733 mmHg 69%
    23:00 +8°C° 0.1 mm 4 mps 733 mmHg 74%

    26 October, Saturday

    Time Temperature Precipitation Wind Pressure Humidity
    00:00 +7°C° 0.1 mm 4 mps 732 mmHg 79%
    01:00 +6°C° 0.1 mm 4 mps 732 mmHg 84%
    02:00 +6°C° 0 mm 4 mps 731 mmHg 83%
    03:00 +6°C° 0 mm 5 mps 731 mmHg 83%
    04:00 +5°C° 0 mm 5 mps 731 mmHg 82%
    05:00 +6°C° 0 mm 5 mps 731 mmHg 78%
    06:00 +7°C° 0 mm 5 mps 731 mmHg 74%
    07:00 +8°C° 0 mm 5 mps 731 mmHg 70%
    08:00 +10°C° 0.1 mm 4 mps 731 mmHg 66%
    09:00 +11°C° 0.1 mm 4 mps 731 mmHg 61%
    10:00 +12°C° 0.1 mm 4 mps 731 mmHg 57%
    11:00 +12°C° 0.5 mm 4 mps 731 mmHg 57%
    12:00 +12°C° 0.5 mm 4 mps 731 mmHg 57%
    13:00 +12°C° 0.5 mm 4 mps 732 mmHg 58%
    14:00 +12°C° 0.3 mm 5 mps 732 mmHg 58%
    15:00 +12°C° 0.3 mm 5 mps 733 mmHg 59%
    16:00 +10°C° 0.3 mm 5 mps 733 mmHg 60%
    17:00 +9°C° 0.1 mm 5 mps 734 mmHg 64%
    18:00 +8°C° 0.1 mm 5 mps 735 mmHg 68%
    19:00 +7°C° 0.1 mm 5 mps 736 mmHg 72%
    20:00 +6°C° 0 mm 4 mps 737 mmHg 74%
    21:00 +6°C° 0 mm 4 mps 737 mmHg 77%
    22:00 +5°C° 0 mm 4 mps 738 mmHg 79%
    23:00 +5°C° 0 mm 4 mps 738 mmHg 80%

    27 October, Sunday

    Time Temperature Precipitation Wind Pressure Humidity
    00:00 +5°C° 0 mm 4 mps 738 mmHg 82%
    01:00 +5°C° 0 mm 4 mps 739 mmHg 83%
    02:00 +4°C° 0 mm 4 mps 739 mmHg 85%
    03:00 +4°C° 0 mm 3 mps 739 mmHg 87%
    04:00 +3°C° 0 mm 3 mps 740 mmHg 89%
    05:00 +4°C° 0 mm 3 mps 740 mmHg 85%
    06:00 +6°C° 0 mm 2 mps 741 mmHg 82%
    07:00 +7°C° 0 mm 2 mps 742 mmHg 79%
    08:00 +9°C° 0.1 mm 3 mps 742 mmHg 70%
    09:00 +10°C° 0.1 mm 3 mps 742 mmHg 61%
    10:00 +12°C° 0.1 mm 4 mps 742 mmHg 51%
    11:00 +12°C° 0 mm 4 mps 742 mmHg 48%
    12:00 +13°C° 0 mm 5 mps 743 mmHg 44%
    13:00 +14°C° 0 mm 5 mps 743 mmHg 41%
    14:00 +13°C° 0.1 mm 5 mps 743 mmHg 46%
    15:00 +13°C° 0.1 mm 5 mps 743 mmHg 50%
    16:00 +12°C° 0.1 mm 5 mps 743 mmHg 55%
    17:00 +11°C° 0.1 mm 4 mps 743 mmHg 60%
    18:00 +10°C° 0.1 mm 4 mps 744 mmHg 66%
    19:00 +8°C° 0.1 mm 4 mps 744 mmHg 71%
    20:00 +7°C° 0 mm 4 mps 745 mmHg 76%
    21:00 +6°C° 0 mm 4 mps 746 mmHg 80%
    22:00 +5°C° 0 mm 4 mps 746 mmHg 84%
    23:00 +5°C° 0 mm 4 mps 747 mmHg 84%

    28 October, Monday

    Time Temperature Precipitation Wind Pressure Humidity
    00:00 +4°C° 0 mm 4 mps 747 mmHg 84%
    01:00 +3°C° 0 mm 4 mps 747 mmHg 84%
    02:00 +3°C° 0 mm 4 mps 748 mmHg 86%
    03:00 +3°C° 0 mm 3 mps 748 mmHg 88%
    04:00 +2°C° 0 mm 3 mps 748 mmHg 90%
    05:00 +4°C° 0 mm 3 mps 749 mmHg 83%
    06:00 +5°C° 0 mm 3 mps 749 mmHg 76%
    07:00 +8°C° 0 mm 2 mps 750 mmHg 69%
    08:00 +10°C° 0 mm 2 mps 750 mmHg 61%
    09:00 +12°C° 0 mm 2 mps 750 mmHg 53%
    10:00 +14°C° 0 mm 2 mps 750 mmHg 45%
    11:00 +13°C° 0 mm 3 mps 750 mmHg 44%
    12:00 +14°C° 0 mm 3 mps 750 mmHg 43%
    13:00 +14°C° 0 mm 3 mps 750 mmHg 42%
    14:00 +14°C° 0 mm 4 mps 749 mmHg 41%
    15:00 +15°C° 0 mm 4 mps 749 mmHg 39%
    16:00 +15°C° 0 mm 4 mps 749 mmHg 38%
    17:00 +13°C° 0 mm 3 mps 749 mmHg 42%
    18:00 +12°C° 0 mm 3 mps 750 mmHg 46%
    19:00 +10°C° 0 mm 2 mps 750 mmHg 50%
    20:00 +10°C° 0 mm 2 mps 750 mmHg 54%
    21:00 +9°C° 0 mm 2 mps 750 mmHg 58%
    22:00 +8°C° 0 mm 2 mps 750 mmHg 62%
    23:00 +8°C° 0 mm 2 mps 750 mmHg 66%

    29 October, Tuesday

    Time Temperature Precipitation Wind Pressure Humidity
    00:00 +7°C° 0 mm 2 mps 750 mmHg 69%
    01:00 +7°C° 0 mm 2 mps 750 mmHg 73%
    02:00 +6°C° 0 mm 2 mps 749 mmHg 73%
    03:00 +5°C° 0 mm 2 mps 749 mmHg 73%
    04:00 +4°C° 0 mm 3 mps 749 mmHg 73%
    05:00 +5°C° 0 mm 3 mps 749 mmHg 64%
    06:00 +8°C° 0 mm 3 mps 749 mmHg 54%
    07:00 +9°C° 0 mm 3 mps 749 mmHg 45%
    08:00 +13°C° 0 mm 3 mps 748 mmHg 37%
    09:00 +17°C° 0 mm 3 mps 748 mmHg 28%
    10:00 +20°C° 0 mm 3 mps 748 mmHg 20%
    11:00 +21°C° 0 mm 3 mps 747 mmHg 19%
    12:00 +24°C° 0 mm 3 mps 747 mmHg 18%
    13:00 +25°C° 0 mm 4 mps 747 mmHg 17%
    14:00 +23°C° 0 mm 4 mps 746 mmHg 21%
    15:00 +22°C° 0 mm 4 mps 746 mmHg 24%
    16:00 +22°C° 0 mm 4 mps 746 mmHg 28%
    17:00 +19°C° 0 mm 4 mps 746 mmHg 35%
    18:00 +17°C° 0 mm 3 mps 746 mmHg 42%
    19:00 +14°C° 0 mm 2 mps 746 mmHg 49%
    20:00 +13°C° 0 mm 2 mps 746 mmHg 56%
    21:00 +12°C° 0 mm 2 mps 747 mmHg 63%
    22:00 +10°C° 0 mm 2 mps 747 mmHg 70%
    23:00 +10°C° 0 mm 2 mps 746 mmHg 72%
    Show more